星链-31098 (STARLINK-31098 )

导读

STARLINK-31098是美国SpaceX星链互联网卫星星座的一员,于2024年1月3日发射升空。星链项目旨在构建全球卫星互联网网络,为全球偏远地区、海洋空域等提供高速互联网接入服务,这颗卫星入轨后,进一步扩充了星链星座的规模,增强了星座的覆盖能力与服务稳定性。

Basic Information
目录编号:
58716
目录名称:
STARLINK-31098
国际标识:
2024-002M
轨道中心:
EARTH
卫星名称:
星链-31098
卫星全名:
星链-31098 (STARLINK-31098 )
卫星状态:
在轨 (已飞行897 天)
发射日期:
2024-01-03 UTC
国别 :
美国 (US)
星等 :
--
Orbit Information
数据来源 国际轨道数据 AOE轨道数据
星历时间 2026-06-17T11:34:09+0800
1天前
查看轨道信息
2026-06-16T02:00:00+0800
2天前
查看轨道信息
半长轴 6853.357km 6853.344km
偏心率 0.0001609 0.0001112
轨道倾角 53.161° 53.161°
近地点辐角 87.266° 87.450°
升交点赤经 127.908° 134.400°
平近点角 272.852° 123.275°
近地点 474.117km 474.444km
远地点 476.323km 475.97km
周期 94.105分钟 94.105分钟
每日圈数 15.301984 15.302029
Detailed Information
固有亮度:
5
最大亮度:
0.3
卫星平台:
Starlink v2.0 mini
覆盖范围:
全球
运营商:
太空探索技术公司
运营商所在国:
美国
制造商(研发单位):
太空探索技术公司
制造商所在国:
美国
使用方式:
暂无
Satellite Introduction
星链(Starlink)计划是由太空探索技术公司(SpaceX)提出的一个巨型低轨卫星互联网星座项目,计划在2019年至2024年间在太空搭建由约1.2万颗卫星组成的“星链”网络,其中1584颗将部署在地球上空550千米处的近地轨道,并从2020年开始工作。该卫星仍在工作。
2D Orbit Map
3D Orbit Map
Orbit Altitude Analysis Chart
Orbit Inclination Analysis Chart
Orbit Comprehensive Analysis Chart
View Comprehensive Chart